Welcome to the New NWS' Forecast!
Most changes are behind the scenes, but click here for differences you might notice.
Latest weather observations around

Huntsville, Madison County Executive Airport (KMDQ)

Using English Units (Switch to International System of Units)
Date/ Time (CDT) Wind (mph) Vis. (mi) Weather Sky Cond. Temp (°F) Rel. Humidity Wind Chill (°F) Heat Index (°F) Pressure Precip. (in)
Air Dwpt 6 hour Altimeter (inHg) Sea level (inHg) 1 hr 3 hr 6 hr
Max Min
Sep 22 04:10 Calm 10 Clear CLR 72 71     95%   73 30.07        
Sep 22 03:50 Calm 10 Clear CLR 72 71     95%   74 30.07        
Sep 22 03:30 Calm 10 Clear CLR 73 71     94%   74 30.08        
Sep 22 03:10 ESE 5 10 Clear CLR 73 71     94%   74 30.09        
Sep 22 02:50 Calm 10 Clear CLR 73 71     94%   74 30.09        
Sep 22 02:30 Calm 10 Clear CLR 73 71     94%   75 30.09        
Sep 22 02:10 Calm 10 Partly Cloudy SCT065 74 71     91%   75 30.1        
Sep 22 01:50 E 3 10 Partly Cloudy SCT065 SCT080 SCT120 74 71     90%   76 30.1        
Sep 22 01:30 Calm 10 Mostly Cloudy SCT055 BKN080 BKN120 74 71     89%   76 30.1        
Sep 22 01:10 Calm 10 Cloudy BKN055 OVC075 74 71     91%   75 30.11        
Sep 22 00:50 Calm 10 Cloudy BKN055 OVC070 74 71     90%   76 30.12        
Sep 22 00:35 N 5 10 Cloudy SCT055 OVC070 75 71     89%   76 30.12        
Sep 22 00:10 NW 3 10 Mostly Cloudy BKN055 BKN070 73 71     94%   74 30.12        
Sep 21 23:50 Calm 10 Clear CLR 73 71     94%   74 30.12        
Sep 21 23:30 Calm 10 Clear CLR 74 71     91%   75 30.12        
Sep 21 23:10 SE 3 10 Partly Cloudy SCT075 76 71     84%   77 30.11        
Sep 21 22:50 Calm 10 Mostly Cloudy BKN075 75 71     87%   77 30.11        
Sep 21 22:30 SSE 6 10 Mostly Cloudy BKN075 77 71     80%   79 30.11        
Sep 21 22:10 SSE 3 10 Partly Cloudy SCT075 78 71     80%   79 30.11        
Sep 21 21:50 SE 5 10 Clear CLR 77 71     81%   78 30.11        
Sep 21 21:30 Calm 10 Clear CLR 75 71     89%   76 30.1        
Sep 21 21:10 Calm 10 Partly Cloudy SCT085 77 71     83%   78 30.1        
Sep 21 20:50 Calm 7 Partly Cloudy SCT085 76 72     88%   77 30.1        
Sep 21 20:30 SE 3 10 Partly Cloudy SCT085 77 72     83%   78 30.09        
Sep 21 20:10 Calm 10 Clear CLR 78 71     81%   79 30.09        
Sep 21 19:50 SE 5 10 Clear CLR 79 71     78%   82 30.08        
Sep 21 19:30 ESE 6 10 Partly Cloudy SCT090 78 72     83%   79 30.07        
Sep 21 19:10 SE 3 10 Partly Cloudy SCT090 78 72     83%   79 30.07        
Sep 21 18:50 Calm 10 Clear CLR 80 72     77%   84 30.06        
Sep 21 18:30 Calm 10 Clear CLR 82 71     71%   86 30.06        
Sep 21 18:10 SE 5 10 Clear CLR 83 71     67%   87 30.05        
Sep 21 17:50 SE 7 10 Clear CLR 84 70     64%   88 30.05        
Sep 21 17:30 SE 7 10 Clear CLR 85 70     62%   89 30.05        
Sep 21 17:10 SE 5 10 Partly Cloudy SCT120 85 70     60%   89 30.05        
Sep 21 16:50 SE 7 10 Partly Cloudy SCT120 85 69     58%   89 30.04        
Sep 21 16:30 SE 7 10 Clear CLR 86 68     55%   90 30.04        
Sep 21 16:10 SE 6 10 Partly Cloudy SCT080 88 69     54%   92 30.04        
Sep 21 15:50 SSE 8 10 Partly Cloudy SCT080 SCT100 85 69     59%   88 30.05        
Sep 21 15:30 SSE 7 10 Clear CLR 85 69     57%   89 30.05        
Sep 21 15:10 SSW 7 10 Clear CLR 82 70     66%   86 30.06        
Sep 21 14:50 SSW 13 10 Clear CLR 83 71     68%   87 30.06        
Sep 21 14:30   10 Partly Cloudy SCT100 83 71     67%   88 30.07        
Sep 21 14:10 S 8 10 Cloudy SCT070 OVC100 88 72     59%   94 30.07        
Sep 21 13:50 S 9 10 Cloudy OVC070 88 72     60%   95 30.09        
Sep 21 13:30 SSW 6 10 Cloudy SCT040 SCT055 OVC080 87 71     59%   93 30.09        
Sep 21 13:10 Calm 10 Cloudy BKN039 BKN055 OVC110 88 71     57%   93 30.1        
Sep 21 12:50 WSW 7 10 Mostly Cloudy SCT039 SCT045 BKN070 87 71     60%   93 30.11        
Sep 21 12:30 SSE 3 10 Partly Cloudy SCT070 SCT080 87 72     61%   93 30.11        
Sep 21 12:10 SE 6 10 Partly Cloudy SCT070 SCT080 88 71     58%   94 30.12        
Sep 21 11:50 S 7 10 Partly Cloudy SCT075 86 71     62%   91 30.13        
Sep 21 11:30 S 6 10 Partly Cloudy SCT075 85 71     63%   91 30.14        
Sep 21 11:10 SSE 7 10 Mostly Cloudy BKN075 84 71     66%   89 30.14        
Sep 21 10:50 SSE 9 10 Mostly Cloudy SCT075 BKN085 83 71     67%   87 30.15        
Sep 21 10:30 SE 8 10 Cloudy SCT075 OVC085 82 71     68%   87 30.15        
Sep 21 09:50 SSE 8 10 Mostly Cloudy BKN075 BKN080 80 70     73%   83 30.16        
Sep 21 09:30 SE 8 10 Mostly Cloudy SCT033 BKN075 79 71     77%   83 30.15        
Sep 21 09:10 Calm 10 Mostly Cloudy BKN033 BKN043 BKN075 77 72     84%   78 30.16        
Sep 21 08:50 SE 3 10 Partly Cloudy SCT033 SCT070 SCT120 75 72     92%   76 30.15        
Sep 21 08:30 ESE 5 10 Mostly Cloudy BKN033 BKN080 BKN120 73 72     94%   75 30.15        
Sep 21 08:10 NNE 3 10 Cloudy OVC033 73 71     95%   74 30.15        
Sep 21 07:50 ESE 5 10 Cloudy OVC035 72 71     95%   74 30.15        
Sep 21 07:30 E 6 10 Cloudy BKN035 BKN041 OVC120 72 71     96%   73 30.15        
Sep 21 07:10 E 5 10 Cloudy SCT007 BKN035 OVC045 72 71     96%   73 30.15        
Sep 21 06:50 E 5 1.25 Heavy Rain and Fog/Mist SCT007 SCT015 OVC034 72 71     96%   74 30.14        
Sep 21 06:30 E 8 10 Light Rain SCT016 OVC032 72 71     95%   73 30.14        
Sep 21 06:10 NE 3 7 Rain BKN032 OVC047 72 71     94%   74 30.14        
Sep 21 05:50 SSE 8 7 Light Rain and Fog/Mist BKN036 BKN046 OVC090 72 71     95%   74 30.13        
Sep 21 05:30 SSE 11 10 Light Rain BKN036 OVC048 76 69     80%   77 30.12        
Sep 21 05:10 SE 8 10 Cloudy SCT039 BKN048 OVC120 79 64     61%   79 30.11        
Sep 21 04:50 SSE 6 10 Cloudy SCT055 OVC120 78 65     63%   79 30.11        
Sep 21 04:30 SE 6 10 Cloudy OVC120 79 65     63%   79 30.1        
Sep 21 04:10 SE 6 10 Cloudy OVC120 79 65     62%   79 30.1        
Sep 21 03:50 SSE 6 10 Cloudy OVC120 79 65     62%   79 30.1        
Sep 21 03:30 SE 7 10 Cloudy BKN090 OVC120 79 65     61%   80 30.1        
Sep 21 03:10 SE 7 10 Cloudy SCT080 OVC110 80 64     59%   82 30.09        
Sep 21 02:50 SSE 7 10 Mostly Cloudy BKN100 BKN120 80 64     59%   82 30.09        
Sep 21 02:30 SSE 6 10 Partly Cloudy SCT100 80 65     59%   82 30.09        
Sep 21 02:10 SSE 6 10 Clear CLR 80 65     61%   82 30.09        
Sep 21 01:50 SSE 6 10 Partly Cloudy SCT085 80 65     59%   82 30.09        
Sep 21 01:30 SSE 3 10 Mostly Cloudy BKN075 BKN085 81 65     57%   83 30.09        
Sep 21 01:10 S 3 10 Cloudy SCT070 OVC085 81 64     56%   83 30.09        
Sep 21 00:50 SSE 3 10 Cloudy SCT070 OVC085 81 65     58%   83 30.09        
Sep 21 00:30 Calm 10 Cloudy BKN070 OVC110 81 65     58%   82 30.09        
Sep 21 00:10 Calm 10 Cloudy BKN070 BKN095 OVC110 80 66     62%   82 30.09        
Sep 20 23:50 SSE 3 10 Cloudy BKN070 OVC090 81 64     57%   82 30.08        
Sep 20 23:30 Calm 10 Cloudy OVC080 81 64     55%   83 30.08        
Sep 20 23:10 ESE 6 10 Cloudy OVC080 82 63     54%   83 30.08        
Sep 20 22:50 SE 7 10 Mostly Cloudy BKN080 BKN090 81 64     56%   82 30.08        
Sep 20 22:30 SE 6 10 Partly Cloudy SCT080 81 63     54%   83 30.07        
Sep 20 22:10 SE 6 10 Clear CLR 82 63     53%   83 30.07        
Sep 20 21:50 SE 7 10 Partly Cloudy SCT090 82 64     55%   83 30.06        
Sep 20 21:30 SE 6 10 Partly Cloudy SCT090 80 65     60%   82 30.06        
Sep 20 21:10 SE 5 10 Partly Cloudy SCT090 82 64     54%   84 30.06        
Sep 20 20:30 ESE 5 10 Clear CLR 81 65     57%   83 30.05        
Sep 20 20:10 SE 3 10 Clear CLR 79 67     66%   80 30.04        
Sep 20 19:50 SE 3 10 Clear CLR 77 68     73%   78 30.03        
Sep 20 19:30 SE 3 10 Clear CLR 79 67     67%   82 30.03        
Sep 20 19:10 Calm 10 Clear CLR 83 65     55%   85 30.03        
Sep 20 18:50 ESE 3 10 Clear CLR 83 66     55%   86 30.02        
Sep 20 18:30 ESE 3 10 Clear CLR 85 66     54%   87 30.02        
Sep 20 17:50 ESE 3 10 Mostly Cloudy BKN085 92 62     38%   92 30.02        
Sep 20 17:30 SE 3 10 Partly Cloudy SCT085 SCT110 94 60     32%   94 30.01        
Sep 20 17:10 SE 5 10 Partly Cloudy SCT085 SCT110 95 59     30%   94 30.02        
Sep 20 16:50 SSE 3 10 Mostly Cloudy BKN085 BKN110 95 60     31%   95 30.02        
Sep 20 16:30 ESE 3 10 Partly Cloudy SCT085 95 61     33%   95 30.02        
Sep 20 16:10 SE 5 10 Partly Cloudy SCT085 SCT110 95 61     32%   95 30.02        
Sep 20 15:50 SE 7 10 Partly Cloudy SCT100 94 60     33%   94 30.03        
Sep 20 15:30 SE 8 10 Partly Cloudy SCT075 95 62     33%   96 30.03        
Sep 20 15:10 SE 6 10 Partly Cloudy SCT075 94 63     35%   95 30.03        
Sep 20 14:50 S 7 10 Clear CLR 95 63     35%   96 30.03        
Sep 20 14:30 SE 5 10 Clear CLR 94 63     36%   95 30.04        
Sep 20 14:10 SE 5 10 Clear CLR 92 63     38%   93 30.05        
Sep 20 13:50 Calm 10 Partly Cloudy SCT070 SCT085 SCT110 92 64     39%   94 30.06        
Sep 20 13:30 ESE 7 10 Partly Cloudy SCT070 94 63     37%   96 30.07        
Sep 20 13:10 SE 8 10 Partly Cloudy SCT070 SCT090 94 63     36%   95 30.08        
Sep 20 12:50 S 7 10 Partly Cloudy SCT070 SCT090 92 63     38%   93 30.08        
Sep 20 12:30 NE 5 7 Partly Cloudy SCT070 SCT095 91 64     41%   93 30.09        
Sep 20 12:10 SSW 3 10 Partly Cloudy SCT095 89 64     44%   91 30.1        
Sep 20 11:50 SSW 7 10 Partly Cloudy SCT065 92 65     42%   94 30.11        
Sep 20 11:30 SSW 6 10 Clear CLR 90 66     44%   93 30.12        
Sep 20 11:10 SE 7 10 Clear CLR 90 66     45%   93 30.12        
Sep 20 10:50 SSW 6 10 Clear CLR 89 68     49%   93 30.13        
Sep 20 10:30 SE 3 10 Partly Cloudy SCT110 88 68     53%   91 30.13        
Sep 20 10:10 ESE 3 7 Clear CLR 87 68     53%   90 30.13        
Sep 20 09:50 SSE 6 10 Clear CLR 86 67     54%   89 30.13        
Sep 20 09:30 SE 7 10 Clear CLR 84 68     59%   87 30.13        
Sep 20 09:10 SE 7 10 Clear CLR 82 68     62%   85 30.13        
Sep 20 08:50 SE 3 10 Clear CLR 80 69     70%   83 30.12        
Sep 20 08:30 SE 3 10 Clear CLR 77 69     76%   78 30.11        
Sep 20 08:10 Calm 10 Clear CLR 74 68     81%   75 30.11        
Sep 20 07:50 Calm 10 Clear CLR 72 67     85%   73 30.11        
Sep 20 07:30 E 3 10 Clear CLR 69 66     93%     30.1        
Sep 20 07:10 Calm 10 Clear CLR 68 66     93%     30.09        
Sep 20 06:50 Calm 10 Clear CLR 66 65     96%     30.09        
Sep 20 06:30 Calm 10 Clear CLR 66 65     95%     30.09        
Sep 20 06:10 Calm 10 Clear CLR 66 65     96%     30.08        
Sep 20 05:50 Calm 10 Clear CLR 65 64     96%     30.07        
Sep 20 05:30 Calm 10 Clear   67 66     95%     30.07        
Sep 20 05:10 Calm 10 Clear   67 66     95%     30.06        
Sep 20 04:50 Calm 10 Clear   67 65     95%     30.06        
Sep 20 04:30 Calm 10 Clear CLR 67 65     96%     30.05        
Sep 20 04:10 Calm 10 Clear CLR 67 66     95%     30.05        
Sep 20 03:50 Calm 10 Clear CLR 67 65     95%     30.05        
Sep 20 03:30 Calm 10 Clear CLR 67 65     95%     30.04        
Sep 20 03:10 Calm 10 Clear CLR 66 65     98%     30.04        
Sep 20 02:50 Calm 10 Clear CLR 67 65     95%     30.03        
Sep 20 02:30 Calm 10 Clear CLR 67 65     96%     30.03        
Sep 20 02:10 Calm 10 Clear CLR 68 67     95%     30.03        
Sep 20 01:50 Calm 10 Clear CLR 68 67     95%     30.04        
Sep 20 01:30 Calm 10 Clear CLR 69 67     95%     30.03        
Sep 20 01:10 Calm 10 Clear CLR 68 67     96%     30.04        
Sep 20 00:50 Calm 10 Clear CLR 69 67     95%     30.04        
Sep 20 00:30 Calm 10 Clear CLR 69 67     93%     30.04        
Sep 20 00:10 Calm 10 Clear CLR 69 67     94%     30.04        
Sep 19 23:50 Calm 10 Clear CLR 70 67     92%     30.04        
Sep 19 23:30 Calm 10 Clear CLR 70 68     93%     30.03        
Sep 19 23:10 Calm 10 Clear CLR 70 68     94%     30.03        
Sep 19 22:50 Calm 10 Clear CLR 71 68     91%   72 30.03        
Sep 19 22:30 Calm 10 Clear CLR 71 69     91%   73 30.03        
Sep 19 22:10 Calm 10 Clear CLR 72 69     91%   73 30.03        
Sep 19 21:50 Calm 10 Clear CLR 72 68     87%   74 30.03        
Sep 19 21:30 Calm 10 Clear CLR 73 69     86%   74 30.03        
Sep 19 21:10 Calm 10 Clear CLR 74 69     83%   76 30.02        
Sep 19 20:50 Calm 10 Clear CLR 74 69     85%   75 30.02        
Sep 19 20:30 Calm 10 Clear CLR 76 69     81%   77 30.01        
Sep 19 20:10 Calm 10 Clear CLR 76 69     80%   77 30.01        
Sep 19 19:50 Calm 10 Clear CLR 77 69     78%   78 30        
Sep 19 19:30 Calm 10 Clear CLR 78 69     75%   79 29.99        
Sep 19 19:10 Calm 10 Clear CLR 79 70     72%   82 29.99        
Sep 19 18:50 Calm 10 Clear CLR 81 69     67%   84 29.99        
Sep 19 18:30 NE 3 10 Clear CLR 84 69     59%   88 29.98        
Sep 19 18:10 NE 3 10 Clear CLR 89 67     48%   92 29.98        
Sep 19 17:50 NE 5 10 Partly Cloudy SCT110 91 65     43%   93 29.98        
Sep 19 17:30 NW 5 10 Partly Cloudy SCT120 91 65     42%   93 29.98        
Sep 19 17:10 Calm 10 Clear CLR 92 63     39%   93 29.98        
Sep 19 16:50 NW 5 10 Clear CLR 92 64     39%   93 29.97        
Sep 19 16:30 WSW 5 10 Clear CLR 93 64     39%   95 29.98        
Sep 19 16:10 WNW 5 10 Clear CLR 92 64     40%   94 29.98        
Sep 19 15:50 Calm 10 Clear CLR 93 63     36%   94 29.98        
Sep 19 15:30 Calm 10 Clear CLR 93 63     37%   94 29.98        
Sep 19 15:10 Calm 7 Haze CLR 92 63     39%   93 29.98        
Sep 19 14:50 NE 3 10 Clear CLR 92 63     39%   93 29.99        
Sep 19 14:30 Calm 10 Clear CLR 92 64     40%   94 30        
Sep 19 14:10 NNW 5 10 Clear CLR 91 64     40%   93 30        
Sep 19 13:50 Calm 10 Partly Cloudy SCT060 92 65     41%   94 30.01        
Sep 19 13:30 N 7 10 Partly Cloudy SCT060 91 66     44%   94 30.02        
Sep 19 13:10 N 7 10 Partly Cloudy SCT060 91 66     44%   94 30.02        
Sep 19 12:50 NNW 7 10 Clear CLR 90 66     45%   93 30.03        
Sep 19 12:30 Calm 10 Clear CLR 90 66     44%   93 30.03        
Sep 19 12:10 Calm 7 Haze CLR 90 65     44%   92 30.04        
Sep 19 11:50 S 5 10 Clear CLR 89 65     45%   91 30.04        
Sep 19 11:30 SSW 3 7 Clear CLR 88 67     51%   91 30.05        
Sep 19 11:10 Calm 10 Clear CLR 88 68     51%   91 30.06        
Sep 19 10:50 Calm 10 Clear CLR 86 69     56%   90 30.06        
Sep 19 10:30 Calm 7 Clear CLR 85 69     58%   89 30.06        
Sep 19 10:10 Calm 10 Clear CLR 83 70     65%   88 30.06        
Sep 19 09:50 Calm 10 Clear CLR 81 70     69%   85 30.06        
Sep 19 09:30 Calm 10 Clear CLR 79 70     74%   82 30.06        
Sep 19 09:10 Calm 10 Clear CLR 77 70     80%   78 30.06        
Sep 19 08:50 Calm 10 Clear CLR 73 69     88%   74 30.06        
Sep 19 08:30 Calm 10 Clear CLR 72 68     88%   73 30.06        
Sep 19 08:10 Calm 10 Clear CLR 70 67     91%   71 30.05        
Sep 19 07:50 Calm 10 Clear CLR 68 67     95%     30.05        
Sep 19 07:30 Calm 10 Clear CLR 67 65     94%     30.04        
Sep 19 07:10 Calm 10 Clear CLR 65 64     96%     30.04        
Sep 19 06:50 Calm 2 Fog/Mist SCT002 64 63     98%     30.04        
Sep 19 06:30 Calm 3 Fog/Mist SCT001 63 63     98%     30.03        
Sep 19 06:10 Calm 10 Mostly Cloudy BKN001 64 63     97%     30.02        
Sep 19 05:50 Calm 3 Fog/Mist BKN001 64 64     98%     30.02        
Sep 19 05:30 NNW 5 3.5 Fog/Mist SCT001 64 63     98%     30.01        
Sep 19 05:10 Calm 7 Clear CLR 65 64     97%     30        
Sep 19 04:50 Calm 10 Clear CLR 64 64     98%     29.99        
Sep 19 04:30 Calm 10 Clear CLR 65 63     96%     29.99        
Sep 19 04:10 Calm 10 Clear CLR 65 64     98%     29.98        
Sep 19 03:50 Calm 7 Fog/Mist CLR 65 64     98%     29.98        
Sep 19 03:30 Calm 7 Clear CLR 66 65     98%     29.98        
Sep 19 03:10 Calm 10 Clear CLR 66 65     96%     29.98        
Sep 19 02:50 Calm 10 Clear CLR 67 65     95%     29.98        
Sep 19 02:30 Calm 10 Clear CLR 67 66     97%     29.98        
Sep 19 02:10 N 3 10 Clear CLR 67 66     97%     29.98        
Sep 19 01:50 NNW 3 10 Clear CLR 66 65     96%     29.98        
Sep 19 01:30 Calm 10 Clear CLR 68 66     95%     29.98        
Sep 19 01:10 Calm 10 Clear CLR 68 67     96%     29.98        
Sep 19 00:50 Calm 10 Clear CLR 69 67     93%     29.99        
Sep 19 00:30 N 3 10 Clear CLR 68 67     97%     29.99        
Sep 19 00:10 Calm 10 Clear CLR 69 68     96%     29.98        
Sep 18 23:50 Calm 10 Clear CLR 69 67     93%     29.98        
Sep 18 23:30 Calm 10 Clear CLR 70 68     95%     29.99        
Sep 18 23:10 Calm 10 Clear CLR 70 68     95%     29.99        
Sep 18 22:50 Calm 10 Clear CLR 70 68     95%     29.99        
Sep 18 22:30 Calm 10 Partly Cloudy SCT110 71 68     91%   72 29.99        
Sep 18 22:10 Calm 10 Clear CLR 71 68     90%   72 29.99        
Sep 18 21:50 Calm 10 Clear CLR 71 68     91%   72 29.99        
Sep 18 21:30 Calm 10 Clear CLR 71 69     92%   72 29.98        
Sep 18 21:10 N 5 10 Clear CLR 71 69     91%   73 29.97        
Sep 18 20:50 Calm 10 Clear CLR 73 69     86%   74 29.96        
Sep 18 20:30 Calm 10 Clear CLR 74 69     83%   75 29.96        
Sep 18 20:10 Calm 10 Clear CLR 74 69     84%   76 29.95        
Sep 18 19:50 Calm 10 Clear CLR 75 70     85%   76 29.95        
Sep 18 19:30 Calm 10 Clear CLR 76 70     80%   77 29.95        
Sep 18 19:10 ESE 5 10 Clear CLR 77 70     80%   78 29.95        
Sep 18 18:50 Calm 10 Clear CLR 77 70     78%   78 29.95        
Sep 18 18:30 N 3 10 Clear CLR 80 70     73%   82 29.96        
Sep 18 18:10 NW 5 10 Clear CLR 81 70     69%   84 29.96        
Sep 18 17:50 N 6 10 Clear CLR 83 69     64%   86 29.95        
Sep 18 17:30 N 3 10 Clear CLR 85 69     59%   88 29.95        
Sep 18 17:10 NNW 7 10 Clear CLR 88 67     50%   91 29.95        
Sep 18 16:50 N 7 10 Clear CLR 88 67     49%   91 29.95        
Sep 18 16:30 N 7 10 Clear CLR 87 68     53%   90 29.95        
Sep 18 16:10 N 6 7 Partly Cloudy SCT120 86 69     56%   90 29.95        
Sep 18 15:50 N 6 10 Cloudy OVC120 87 68     53%   91 29.95        
Sep 18 15:30 N 8 10 Cloudy OVC110 88 68     52%   91 29.95        
Sep 18 15:10 N 6 10 Cloudy OVC110 87 69     55%   92 29.95        
Sep 18 14:50 N 10 10 Cloudy SCT055 SCT075 OVC100 87 68     53%   91 29.95        
Sep 18 14:30 NNE 3 10 Cloudy BKN055 BKN075 OVC110 88 67     49%   91 29.96        
Sep 18 14:10 NNW 6 10 Partly Cloudy SCT055 90 68     49%   94 29.96        
Sep 18 13:50 Calm 10 Clear CLR 90 68     49%   94 29.97        
Sep 18 13:30 WSW 5 10 Partly Cloudy SCT048 SCT050 SCT110 89 67     49%   93 29.98        
Sep 18 13:20 SSW 7 10 Mostly Cloudy SCT050 BKN110 89 67     48%   93 29.98        
Sep 18 13:10 NW 6 10 Mostly Cloudy BKN048 89 66     48%   91 29.99        
Sep 18 12:50 Calm 10 Partly Cloudy SCT045 89 67     49%   92 29.99        
Sep 18 12:30 Calm 7 Partly Cloudy SCT043 SCT065 87 68     53%   91 30        
Sep 18 12:10 NNE 3 10 Mostly Cloudy SCT039 SCT055 BKN085 85 69     58%   89 30.01        
Sep 18 11:50 Calm 7 Haze SCT041 SCT070 BKN080 88 69     55%   92 30.02        
Sep 18 11:30 Calm 10 Clear CLR 85 68     57%   89 30.02        
Sep 18 11:10 N 3 10 Clear CLR 85 70     60%   90 30.03        
Sep 18 10:50 Calm 10 Clear CLR 84 69     61%   88 30.03        
Sep 18 10:30 N 3 10 Clear CLR 83 70     65%   87 30.04        
Sep 18 10:10 Calm 10 Clear CLR 82 70     68%   85 30.04        
Sep 18 09:50 Calm 10 Clear CLR 80 70     71%   84 30.05        
Sep 18 09:30 Calm 10 Clear CLR 80 71     74%   83 30.05        
Sep 18 09:10 Calm 10 Clear CLR 78 71     80%   79 30.05        
Sep 18 08:50 Calm 10 Clear CLR 75 70     84%   76 30.04        
Sep 18 08:30 Calm 10 Clear CLR 73 69     88%   74 30.04        
Sep 18 08:10 Calm 10 Clear CLR 71 69     91%   73 30.04        
Sep 18 07:50 Calm 10 Clear CLR 70 68     93%     30.04        
Sep 18 07:30 Calm 10 Clear CLR 68 66     95%     30.04        
Sep 18 07:10 Calm 10 Clear CLR 66 65     96%     30.04        
Sep 18 06:50 Calm 10 Partly Cloudy SCT001 65 64     97%     30.03        
Sep 18 06:30 Calm 10 Partly Cloudy SCT001 65 64     98%     30.03        
Sep 18 06:10 Calm 10 Partly Cloudy SCT002 65 65     98%     30.02        
Sep 18 05:50 Calm 10 Clear CLR 65 64     97%     30.02        
Sep 18 05:30 Calm 10 Clear CLR 65 65     98%     30.02        
Sep 18 05:10 Calm 10 Clear CLR 66 65     97%     30.01        
Sep 18 04:50 Calm 10 Clear CLR 66 65     97%     30.01        
Sep 18 04:30 Calm 10 Clear CLR 66 66     98%     30.01        
Sep 18 04:10 Calm 10 Clear CLR 66 65     98%     30        
Sep 18 03:50 Calm 10 Clear CLR 66 65     97%     30.01        
Sep 18 03:30 Calm 10 Clear CLR 67 66     97%     30        
Sep 18 03:10 Calm 10 Clear CLR 67 66     98%     29.99        
Sep 18 02:50 Calm 10 Clear CLR 67 66     96%     30        
Sep 18 02:30 Calm 10 Clear CLR 68 66     95%     30        
Sep 18 02:10 Calm 10 Clear CLR 67 67     98%     30        
Sep 18 01:50 Calm 10 Clear CLR 68 67     96%     30.01        
Sep 18 01:30 Calm 10 Clear CLR 69 67     96%     30        
Sep 18 01:10 Calm 10 Clear CLR 69 68     97%     30        
Sep 18 00:50 Calm 10 Clear CLR 69 67     96%     30        
Sep 18 00:30 Calm 10 Clear CLR 69 67     96%     30.01        
Sep 18 00:10 Calm 10 Clear CLR 69 68     97%     30.01        
Sep 17 23:50 Calm 10 Clear CLR 70 68     96%     30.01        
Sep 17 23:30 Calm 10 Clear CLR 70 68     93%     30.01        
Sep 17 23:10 Calm 10 Clear CLR 70 69     96%     30.01        
Sep 17 22:50 Calm 10 Clear CLR 71 69     94%   72 30        
Sep 17 22:30 Calm 10 Clear CLR 72 69     92%   73 30        
Sep 17 22:10 Calm 10 Clear CLR 72 69     90%   74 30        
Sep 17 21:50 Calm 10 Clear CLR 72 69     91%   74 30        
Sep 17 21:30 Calm 10 Clear CLR 73 70     89%   74 30        
Sep 17 21:10 Calm 10 Clear CLR 73 70     89%   75 30        
Sep 17 20:50 NNE 3 10 Clear CLR 75 70     83%   76 29.99        
Sep 17 20:30 Calm 10 Clear CLR 76 70     81%   77 29.98        
Sep 17 20:10 NNE 3 10 Clear CLR 77 70     80%   78 29.98        
Sep 17 19:50 NE 3 10 Clear CLR 77 70     79%   78 29.97        
Sep 17 19:30 Calm 10 Clear CLR 76 71     84%   77 29.96        
Sep 17 19:10 Calm 10 Clear CLR 77 71     82%   78 29.95        
Sep 17 18:50 Calm 10 Partly Cloudy SCT041 80 71     74%   83 29.96        
Sep 17 18:30 Calm 10 Partly Cloudy SCT041 80 70     71%   84 29.96        
Sep 17 18:10 Calm 10 Clear CLR 83 73     71%   89 29.95        
Sep 17 17:50 Calm 10 Clear CLR 85 69     61%   89 29.95        
Sep 17 17:30 Calm 10 Clear CLR 85 69     58%   89 29.95        
Sep 17 17:10 Calm 10 Clear CLR 85 69     58%   88 29.95        
Sep 17 16:50 Calm 10 Clear CLR 85 68     58%   88 29.95        
Sep 17 16:30 Calm 10 Clear CLR 84 69     61%   87 29.95        
Sep 17 16:10 NNE 5 10 Clear CLR 84 69     61%   88 29.95        
Sep 17 15:50 NE 3 10 Clear CLR 86 70     59%   90 29.95        
Sep 17 15:30 NE 6 10 Clear CLR 84 70     62%   88 29.95        
Sep 17 15:10 NE 6 10 Partly Cloudy SCT037 SCT060 84 69     61%   88 29.96        
Sep 17 14:50 N 6 10 Mostly Cloudy SCT035 SCT042 BKN050 84 69     61%   88 29.96        
Sep 17 14:30 NE 7 10 Mostly Cloudy SCT035 BKN044 BKN050 84 69     61%   88 29.96        
Sep 17 14:10 Calm 10 Partly Cloudy SCT035 SCT044 SCT070 85 69     61%   89 29.96        
Sep 17 13:50 NNE 6 10 Mostly Cloudy SCT035 BKN043 BKN060 84 69     62%   88 29.97        
Sep 17 13:30 N 6 10 Mostly Cloudy SCT041 SCT049 BKN060 84 69     61%   87 29.98        
Sep 17 13:10 NW 5 10 Partly Cloudy SCT060 84 69     62%   88 29.98        
Sep 17 12:50 NNE 6 10 Partly Cloudy SCT033 SCT060 84 69     62%   88 29.98        
Sep 17 12:30 NNW 9 10 Clear CLR 83 69     63%   87 29.99        
Sep 17 12:10 N 9 10 Partly Cloudy SCT028 83 69     63%   86 29.99        
Sep 17 11:50 NNW 5 10 Mostly Cloudy BKN026 81 69     68%   84 30        
Sep 17 11:30 NNW 7 10 Clear CLR 80 69     69%   83 30        
Sep 17 11:10 N 9 10 Clear CLR 80 69     69%   83 30        
Sep 17 10:50 N 7 10 Clear CLR 80 70     72%   82 30        
Sep 17 10:30 WNW 8 10 Partly Cloudy SCT021 79 70     73%   82 30        
Sep 17 10:10 WNW 7 10 Partly Cloudy SCT019 79 70     75%   80 29.99        
Sep 17 09:50 NNW 6 10 Partly Cloudy SCT015 77 72     82%   79 29.99        
Sep 17 09:30 NNW 5 7 Partly Cloudy SCT012 76 71     84%   77 29.99        
Sep 17 09:10 Calm 10 Clear CLR 74 70     87%   76 29.99        
Sep 17 08:50 Calm 10 Clear CLR 74 70     89%   75 29.98        
Sep 17 08:30 W 3 10 Clear CLR 73 70     89%   74 29.98        
Sep 17 08:10 Calm 10 Clear CLR 72 70     92%   74 29.97        
Sep 17 07:50 Calm 10 Partly Cloudy SCT110 72 69     92%   73 29.96        
Sep 17 07:30 Calm 10 Light Rain SCT050 SCT075 BKN110 71 69     93%   72 29.96        
Sep 17 07:10 Calm 10 Light Rain SCT080 SCT120 70 69     96%   72 29.95        
Sep 17 06:50 Calm 10 Light Rain SCT120 70 69     96%     29.94        
Sep 17 06:30 Calm 7 Clear CLR 70 68     95%     29.94        
Sep 17 06:10 Calm 10 Clear CLR 70 68     95%     29.93        
Sep 17 05:50 Calm 10 Clear CLR 70 68     95%     29.93        
Sep 17 05:30 Calm 10 Clear CLR 70 68     95%     29.92        
Sep 17 05:10 Calm 10 Clear CLR 70 68     94%   71 29.92        
Sep 17 04:50 Calm 10 Clear CLR 70 68     93%   71 29.91        
Sep 17 04:30 Calm 10 Clear CLR 70 68     93%     29.91        
Sep 17 04:10 Calm 10 Clear CLR 69 68     94%     29.91        
Sep 17 03:50 Calm 10 Clear CLR 69 68     95%     29.9        
Sep 17 03:30 Calm 10 Clear CLR 69 68     94%     29.9        
Sep 17 03:10 Calm 10 Clear CLR 69 67     96%     29.9        
Sep 17 02:50 Calm 10 Clear CLR 68 67     95%     29.9        
Sep 17 02:30 Calm 10 Clear CLR 69 68     95%     29.9        
Sep 17 02:10 Calm 10 Clear CLR 69 68     95%     29.9        
Sep 17 01:50 Calm 10 Clear CLR 70 68     92%   71 29.9        
Sep 17 01:30 Calm 10 Clear CLR 70 68     93%   71 29.9        
Sep 17 01:10 Calm 10 Clear CLR 71 68     91%   72 29.9        
Sep 17 00:50 Calm 10 Clear CLR 71 68     90%   72 29.9        
Sep 17 00:30 Calm 10 Clear CLR 71 68     91%   72 29.9        
Sep 17 00:10 Calm 10 Clear CLR 72 68     88%   73 29.9        
Sep 16 23:50 Calm 10 Partly Cloudy SCT039 72 68     88%   73 29.9        
Sep 16 23:30 N 3 10 Mostly Cloudy BKN039 73 68     85%   74 29.91        
Sep 16 23:10 NNW 3 10 Mostly Cloudy BKN039 73 68     84%   74 29.91        
Sep 16 22:50 Calm 10 Partly Cloudy SCT037 73 69     87%   74 29.91        
Sep 16 22:30 NNW 3 10 Mostly Cloudy BKN037 73 68     86%   74 29.91        
Sep 16 22:10 N 5 10 Cloudy BKN037 OVC100 73 68     84%   74 29.91        
Sep 16 21:50 N 3 10 Mostly Cloudy SCT037 SCT047 BKN100 75 68     80%   76 29.91        
Sep 16 21:30 NNE 6 10 Mostly Cloudy SCT031 BKN039 BKN044 75 68     77%   76 29.91        
Sep 16 21:10 NNE 7 10 Cloudy OVC041 76 68     76%   77 29.91        
Sep 16 20:50 N 8 10 Partly Cloudy SCT043 76 67     74%   77 29.91        
Sep 16 20:30 N 9 10 Partly Cloudy SCT048 77 67     72%   78 29.91        
Sep 16 20:10 N 8 10 Partly Cloudy SCT048 78 68     73%   79 29.9        
Sep 16 19:50 N 6 10 Clear CLR 78 68     73%   79 29.89        
Sep 16 19:30 N 5 10 Clear CLR 78 68     72%   79 29.89        
Sep 16 19:10 N 7 10 Clear CLR 78 68     71%   79 29.88        
Sep 16 18:50 N 8 10 Clear CLR 79 68     69%   80 29.88        
Sep 16 18:30 NNE 8 10 Clear CLR 80 68     66%   83 29.88        
Sep 16 18:10 NNE 9 10 Clear CLR 80 68     66%   83 29.88        
Sep 16 17:50 NNE 9 10 Clear CLR 81 68     66%   84 29.88        
Sep 16 17:30 NNE 10 10 Partly Cloudy SCT038 82 68     64%   85 29.88        
Sep 16 17:10 NNE 11 10 Clear CLR 83 68     61%   86 29.87        
Sep 16 16:50 N 9 10 Clear CLR 84 68     58%   87 29.87        
Sep 16 16:30 NNE 14 10 Partly Cloudy SCT042 SCT050 86 68     56%   89 29.87        
Sep 16 16:10 NNE 13 10 Partly Cloudy SCT042 SCT048 85 68     58%   88 29.87        
May 15 10:55 SSW 8 10 Clear CLR 85 68     56%   88 30        
Notice The following observation data may not be complete
May 15 09:55   10 Clear CLR          %              
May 14 19:55 ESE 3 10 Clear   78 66     66%   78 29.95        
May 14 17:35 N 3 10 Clear CLR 88 61     41%   88 29.96        
May 14 09:55 N 3 10 Clear CLR 82 66     59%   84 30.08        
May 14 02:35 Calm 7 Clear CLR 65 64     97%     30.03        
May 14 01:15 Calm 10 Clear CLR 66 65     95%     30.06        
May 14 00:55 Calm 10 Clear CLR 66 64     94%     30.06        
May 14 00:15 Calm 10 Clear CLR 67 65     93%     30.08        
May 13 23:35 Calm 10 Clear CLR 68 66     92%     30.08        
May 13 10:15 WSW 8 10 Clear CLR 83 62     49%   84 30.16        
Notice The following observation data may not be complete
May 13 02:55   10 Clear CLR          %              
May 13 00:35 Calm 10 Clear CLR 63 60     90%     30.09        
May 12 23:55 SSE 3 10 Clear CLR 66 61     84%     30.08        
May 12 21:15 Calm 10 Clear CLR 69 62     78%     30.1        
May 12 17:15 SSW 8 10 Clear CLR 86 56     36%   85 30.09        
May 12 16:55 WNW 8 10 Clear CLR 86 56     36%   85 30.09        
May 12 16:35 NW 7 10 Clear CLR 87 56     35%   85 30.09        
Notice The following observation data may not be complete
May 12 15:35   10 Clear CLR          %              
May 11 21:35 S 8 10 Clear CLR 74 58     59%   73 30.06        
May 11 21:15 S 6 10 Clear CLR 73 60     63%   73 30.06        
May 11 17:15 SW 14 10 Clear CLR 87 60     41%   86 30.05        
Notice The following observation data may not be complete
May 11 13:15   10 Clear CLR          %              
Notice The following observation data may not be complete
Jun 12 08:35   10 Mostly Cloudy SCT018 BKN026 BKN100          %              
Jun 12 04:15 Calm 10 Clear CLR 72 66     83%   72 30.12        
Jun 12 04:00 Calm 10 Clear CLR 72 66     83%   72 30.12        
Jun 12 00:15 Calm 10 Clear CLR 70 66     88%     30.12        
Jun 11 12:55 SE 7 10 Partly Cloudy SCT047 SCT055 86        %     30.16        
Jun 11 11:55 SSE 9 10 Partly Cloudy SCT065 84        %     30.17        
Jun 11 06:55 ESE 3 10 Clear CLR 68 61     78%     30.14        
Jun 11 02:35 Calm 10 Clear   63 61     94%     30.1        
Jun 11 02:15 Calm 10 Clear CLR 63 61     94%     30.11        
Jun 09 23:35 Calm 10 Partly Cloudy SCT060 63 59     88%     30.01        
Jun 09 21:35 Calm 10 Clear CLR 64 59     83%     29.98        
Jun 09 20:15 Calm 10 Clear CLR 70 59     69%     29.95        
Notice The following observation data may not be complete
Jun 09 19:15   10 Clear CLR          %              
Jun 09 18:55 Calm 10 Clear CLR 79        %     29.94        
Jun 09 16:35 Calm 10 Clear CLR 79        %     29.95        
Jun 09 10:15 ESE 3 10 Clear CLR 73 55     53%   73 30        
Notice The following observation data may not be complete
Jun 09 04:35   10 Clear CLR          %              
Jun 09 03:35 Calm 10 Clear CLR 55 54     94%     29.93        
Jun 08 21:35 Calm 10 Clear CLR 63 54     72%     29.92        
Jun 08 20:35 N 3 10 Clear CLR 68 54     60%     29.9        
Jun 08 07:55 N 6 10 Clear CLR 61 54     77%     29.96        
Jun 08 06:55 Calm 10 Clear CLR 57 54     88%     29.94        
Jun 07 14:55 N 13 10 Partly Cloudy SCT060 77        %     29.88        
Jun 07 13:55 NNE 11 10 Partly Cloudy SCT060 79        %     29.88        
Jun 07 12:35 NNE 11 10 Clear   77        %     29.9        
Notice The following observation data may not be complete
Jun 06 15:15   10 Clear CLR          %              
Jun 06 07:15 Calm 10 Mostly Cloudy SCT060 BKN080 68 68     100%     29.83        
Jun 06 06:55 Calm 7 Light Rain SCT033 BKN060 OVC085 68 68     100%     29.84   0    
Jun 06 05:55 Calm 10 Light Rain BKN003 OVC009 68 68     100%     29.83        
Jun 06 03:55 Calm 10 Mostly Cloudy BKN007 BKN110 68 66     94%     29.81        
Jun 05 19:15 Calm 10 Light Drizzle SCT050 73 68     83%   74 29.8